Terminal Aerodrome Forecast
Issued by NWS Charleston, WV

Current Version | Previous Version | Graphics & Text | Print | Product List | Glossary On
Versions: 1 2 3 4 5 6 7 8 9 10 11 12 13 14 15 16 17 18 19 20 21 22 23 24 25
000
FTUS41 KRLX 282110 AAA
TAFBKW
TAF AMD
KBKW 282110Z 2821/2918 16013G18KT P6SM FEW070
     FM282300 16006KT P6SM SCT050
     FM290300 00000KT P6SM SCT250
     FM291100 VRB03KT P6SM OVC003
     FM291300 VRB03KT P6SM BKN010
     FM291600 13005KT P6SM BKN060=

USA.gov is the U.S. government's official web portal to all federal, state and local government web resources and services.